Flag for Germany Weather past 2 weeks in Lehrte, Lower Saxony, Germany

Now
56 °F

Partly sunny.


Feels Like: 54 °F
Forecast: 43 / 53 °F
Wind: 6 mph from Southwest

Location: Hannover

Current Time: Oct 21, 2014 at 11:07:12 AM

Latest Report: Oct 21, 2014 at 10:00 AM


Visibility: 13 mi

Pressure: 29.74 "Hg

Humidity: 79%

Dew point: 49 °F

Location of LehrteLocation

Historic Weather in Lehrte — Graph

°F

Lehrte temperature yesterday

Maximum temperature yesterday: 60 °F (at 12:00 AM)
Minimum temperature yesterday: 56 °F (at 2:00 PM)
Average temperature yesterday: 57 °F

Past Weeks' High & Low Weather Summary

 TemperatureHumidityPressure
High73 °F (Oct 19, 3:00 PM)99% (Oct 18, 12:00 AM)30.17 "Hg (Oct 18, 12:00 AM)
Low49 °F (Oct 16, 2:00 AM)51% (Oct 14, 3:00 PM)29.57 "Hg (Oct 7, 3:00 PM)
Average58 °F83%29.85 "Hg
* Reported Oct 6 10:00 AM — Oct 21 10:00 AM, Lehrte, Weather by CustomWeather, © 2014

Note: Actual official high and low records may vary slightly from our data, if they occured in-between our weather recording intervals... More about our weather records

Advertising

Lehrte weather history for previous 24 hours

 ConditionsComfort  
Time TempWeatherWind HumidityBarometerVisibility
10:00 AM
Oct 21
56 °FPartly sunny.6 mph79%29.74 "Hg12 mi
9:00 AM55 °FOvercast.6 mph81%29.76 "Hg12 mi
8:00 AM54 °FOvercast.5 mph86%29.77 "Hg10 mi
7:00 AM54 °FLight rain. Overcast.5 mph86%29.78 "Hg11 mi
6:00 AM54 °FOvercast.3 mph88%29.81 "Hg6 mi
5:00 AM55 °FOvercast.5 mph85%29.83 "Hg19 mi
4:00 AM55 °FOvercast.5 mph84%29.84 "Hg19 mi
3:00 AM55 °FOvercast.3 mph85%29.86 "Hg19 mi
2:00 AM54 °FOvercast.3 mph84%29.87 "Hg19 mi
1:00 AM55 °FOvercast.5 mph83%29.88 "Hg16 mi
12:00 AM55 °FOvercast.3 mph85%29.88 "Hg16 mi
11:00 PM
Oct 20
56 °FLight rain. Overcast.3 mph85%29.90 "Hg16 mi
10:00 PM56 °FOvercast.3 mph85%29.91 "Hg16 mi
9:00 PM56 °FOvercast.5 mph86%29.91 "Hg14 mi
8:00 PM56 °FSprinkles. Overcast.3 mph86%29.92 "Hg16 mi
7:00 PM57 °FPassing clouds.5 mph84%29.92 "Hg22 mi
6:00 PM57 °FPartly sunny.3 mph90%29.92 "Hg22 mi
4:00 PM57 °FPartly sunny.7 mph86%29.94 "Hg12 mi
3:00 PM57 °FPartly sunny.5 mph92%29.94 "Hg11 mi
2:00 PM56 °FRain showers. Low clouds.7 mph95%29.95 "Hg2 mi
1:00 PM59 °FSprinkles. Overcast.8 mph79%29.95 "Hg12 mi
12:00 PM59 °FOvercast.8 mph79%29.95 "Hg16 mi
Weather by CustomWeather, © 2014

See weather overviewHow to use our weather pages